Time,TemperatureF,DewpointF,PressureIn,WindDirection,WindDirectionDegrees,WindSpeedMPH,WindSpeedGustMPH,Humidity,HourlyPrecipIn,Conditions,Clouds,dailyrainin,SolarRadiationWatts/m^2,SoftwareType,DateUTC
2013-09-25 00:04:00,56.0,54.0,-100.00,NNE,31,0.0,4.0,92,0.00,,,0.00,0.000000,,2013-09-25 04:04:00,
2013-09-25 00:43:00,54.0,53.0,-100.00,North,10,0.0,3.0,95,0.00,,,0.00,0.000000,,2013-09-25 04:43:00,
2013-09-25 00:54:00,54.0,53.0,-100.00,North,10,0.0,3.0,95,0.00,,,0.00,0.000000,,2013-09-25 04:54:00,
2013-09-25 01:03:00,54.0,53.0,-100.00,North,10,0.0,3.0,95,0.00,,,0.00,0.000000,,2013-09-25 05:03:00,
2013-09-25 01:44:00,54.0,53.0,-100.00,North,7,0.0,3.0,96,0.00,,,0.00,0.000000,,2013-09-25 05:44:00,
2013-09-25 01:53:00,54.0,53.0,-100.00,North,7,0.0,3.0,96,0.00,,,0.00,0.000000,,2013-09-25 05:53:00,
2013-09-25 02:02:00,54.0,53.0,-100.00,North,7,0.0,3.0,96,0.00,,,0.00,0.000000,,2013-09-25 06:02:00,
2013-09-25 02:42:00,53.0,52.0,-100.00,North,1,1.0,2.0,96,0.00,,,0.00,0.000000,,2013-09-25 06:42:00,
2013-09-25 02:52:00,53.0,52.0,-100.00,North,1,1.0,2.0,96,0.00,,,0.00,0.000000,,2013-09-25 06:52:00,
2013-09-25 03:01:00,53.0,52.0,-100.00,North,1,1.0,2.0,96,0.00,,,0.00,0.000000,,2013-09-25 07:01:00,
2013-09-25 04:42:00,51.0,50.0,-100.00,North,10,0.0,0.0,96,-99.99,,,0.00,0.000000,,2013-09-25 08:42:00,
2013-09-25 04:53:00,51.0,50.0,-100.00,North,10,0.0,0.0,96,-99.99,,,0.00,0.000000,,2013-09-25 08:53:00,
2013-09-25 05:02:00,51.0,50.0,-100.00,North,10,0.0,0.0,96,-99.99,,,0.00,0.000000,,2013-09-25 09:02:00,
2013-09-25 05:43:00,50.0,49.0,-100.00,NNE,29,0.0,3.0,97,0.00,,,0.00,0.000000,,2013-09-25 09:43:00,
2013-09-25 05:54:00,50.0,49.0,-100.00,NNE,29,0.0,3.0,97,0.00,,,0.00,0.000000,,2013-09-25 09:54:00,
2013-09-25 06:04:00,50.0,49.0,-100.00,NNE,29,0.0,3.0,97,0.00,,,0.00,0.000000,,2013-09-25 10:04:00,
2013-09-25 06:43:00,50.0,49.0,-100.00,NNE,19,0.0,0.0,97,0.00,,,0.00,0.000000,,2013-09-25 10:43:00,
2013-09-25 06:53:00,50.0,49.0,-100.00,NNE,19,0.0,0.0,97,0.00,,,0.00,0.000000,,2013-09-25 10:53:00,
2013-09-25 07:02:00,50.0,49.0,-100.00,NNE,19,0.0,0.0,97,0.00,,,0.00,0.000000,,2013-09-25 11:02:00,
2013-09-25 07:43:00,49.0,48.0,-100.00,North,4,0.0,0.0,97,0.00,,,0.00,1.000000,,2013-09-25 11:43:00,
2013-09-25 07:52:00,49.0,48.0,-100.00,North,4,0.0,0.0,97,0.00,,,0.00,1.000000,,2013-09-25 11:52:00,
2013-09-25 08:02:00,49.0,48.0,-100.00,North,4,0.0,0.0,97,0.00,,,0.00,1.000000,,2013-09-25 12:02:00,
2013-09-25 08:42:00,54.0,53.0,-100.00,North,5,0.0,0.0,97,0.00,,,0.00,72.000000,,2013-09-25 12:42:00,
2013-09-25 08:52:00,54.0,53.0,-100.00,North,5,0.0,0.0,97,0.00,,,0.00,72.000000,,2013-09-25 12:52:00,
2013-09-25 09:02:00,54.0,53.0,-100.00,North,5,0.0,0.0,97,0.00,,,0.00,72.000000,,2013-09-25 13:02:00,
2013-09-25 09:42:00,65.0,58.0,-100.00,ENE,61,4.0,6.0,78,0.00,,,0.00,307.000000,,2013-09-25 13:42:00,
2013-09-25 09:52:00,65.0,58.0,-100.00,ENE,61,4.0,6.0,78,0.00,,,0.00,307.000000,,2013-09-25 13:52:00,
2013-09-25 10:02:00,65.0,58.0,-100.00,ENE,61,4.0,6.0,78,0.00,,,0.00,307.000000,,2013-09-25 14:02:00,
2013-09-25 10:43:00,70.0,57.0,-100.00,ENE,70,9.0,14.0,63,0.00,,,0.00,523.000000,,2013-09-25 14:43:00,
2013-09-25 10:52:00,70.0,57.0,-100.00,ENE,70,9.0,14.0,63,0.00,,,0.00,523.000000,,2013-09-25 14:52:00,
2013-09-25 11:02:00,70.0,57.0,-100.00,ENE,70,9.0,14.0,63,0.00,,,0.00,523.000000,,2013-09-25 15:02:00,
2013-09-25 11:44:00,71.0,55.0,-100.00,NE,52,7.0,14.0,58,0.00,,,0.00,570.000000,,2013-09-25 15:44:00,
2013-09-25 11:54:00,71.0,55.0,-100.00,NE,52,7.0,14.0,58,0.00,,,0.00,570.000000,,2013-09-25 15:54:00,
2013-09-25 12:03:00,71.0,55.0,-100.00,NE,52,7.0,14.0,58,0.00,,,0.00,570.000000,,2013-09-25 16:03:00,
2013-09-25 12:43:00,72.0,56.0,-100.00,ENE,60,8.0,11.0,58,0.00,,,0.00,528.000000,,2013-09-25 16:43:00,
2013-09-25 12:53:00,72.0,56.0,-100.00,ENE,60,8.0,11.0,58,0.00,,,0.00,528.000000,,2013-09-25 16:53:00,
2013-09-25 13:03:00,72.0,56.0,-100.00,ENE,60,8.0,11.0,58,0.00,,,0.00,528.000000,,2013-09-25 17:03:00,
2013-09-25 13:43:00,70.0,57.0,-100.00,NNE,25,7.0,12.0,64,0.00,,,0.00,399.000000,,2013-09-25 17:43:00,
2013-09-25 13:52:00,70.0,57.0,-100.00,NNE,25,7.0,12.0,64,0.00,,,0.00,399.000000,,2013-09-25 17:52:00,
2013-09-25 14:02:00,70.0,57.0,-100.00,NNE,25,7.0,12.0,64,0.00,,,0.00,399.000000,,2013-09-25 18:02:00,
2013-09-25 14:42:00,70.0,57.0,-100.00,NE,46,9.0,13.0,64,0.00,,,0.00,372.000000,,2013-09-25 18:42:00,
2013-09-25 14:52:00,70.0,57.0,-100.00,NE,46,9.0,13.0,64,0.00,,,0.00,372.000000,,2013-09-25 18:52:00,
2013-09-25 15:02:00,70.0,57.0,-100.00,NE,46,9.0,13.0,64,0.00,,,0.00,372.000000,,2013-09-25 19:02:00,
2013-09-25 15:42:00,70.0,56.0,-100.00,NNE,31,9.0,14.0,61,0.00,,,0.00,396.000000,,2013-09-25 19:42:00,
2013-09-25 15:53:00,70.0,56.0,-100.00,NNE,31,9.0,14.0,61,0.00,,,0.00,396.000000,,2013-09-25 19:53:00,
2013-09-25 16:03:00,70.0,56.0,-100.00,NNE,31,9.0,14.0,61,0.00,,,0.00,396.000000,,2013-09-25 20:03:00,
2013-09-25 16:43:00,73.0,58.0,-100.00,NE,43,8.0,12.0,60,0.00,,,0.00,528.000000,,2013-09-25 20:43:00,
2013-09-25 16:52:00,73.0,58.0,-100.00,NE,43,8.0,12.0,60,0.00,,,0.00,528.000000,,2013-09-25 20:52:00,
2013-09-25 17:01:00,73.0,58.0,-100.00,NE,43,8.0,12.0,60,0.00,,,0.00,528.000000,,2013-09-25 21:01:00,
2013-09-25 17:45:00,71.0,58.0,-100.00,NE,46,6.0,13.0,63,0.00,,,0.00,314.000000,,2013-09-25 21:45:00,
2013-09-25 17:55:00,71.0,58.0,-100.00,NE,46,6.0,13.0,63,0.00,,,0.00,314.000000,,2013-09-25 21:55:00,
2013-09-25 18:04:00,71.0,58.0,-100.00,NE,46,6.0,13.0,63,0.00,,,0.00,314.000000,,2013-09-25 22:04:00,
2013-09-25 18:43:00,70.0,58.0,-100.00,NE,42,7.0,11.0,65,0.00,,,0.00,255.000000,,2013-09-25 22:43:00,
2013-09-25 18:53:00,70.0,58.0,-100.00,NE,42,7.0,11.0,65,0.00,,,0.00,255.000000,,2013-09-25 22:53:00,
2013-09-25 19:03:00,70.0,58.0,-100.00,NE,42,7.0,11.0,65,0.00,,,0.00,255.000000,,2013-09-25 23:03:00,
2013-09-25 19:42:00,66.0,59.0,-100.00,North,6,3.0,8.0,77,0.00,,,0.00,52.000000,,2013-09-25 23:42:00,
2013-09-25 19:53:00,66.0,59.0,-100.00,North,6,3.0,8.0,77,0.00,,,0.00,52.000000,,2013-09-25 23:53:00,
2013-09-25 20:02:00,66.0,59.0,-100.00,North,6,3.0,8.0,77,0.00,,,0.00,52.000000,,2013-09-26 00:02:00,
2013-09-25 20:42:00,65.0,60.0,-100.00,NNE,32,3.0,5.0,83,0.00,,,0.00,0.000000,,2013-09-26 00:42:00,
2013-09-25 20:52:00,65.0,60.0,-100.00,NNE,32,3.0,5.0,83,0.00,,,0.00,0.000000,,2013-09-26 00:52:00,
2013-09-25 21:02:00,65.0,60.0,-100.00,NNE,32,3.0,5.0,83,0.00,,,0.00,0.000000,,2013-09-26 01:02:00,
2013-09-25 21:42:00,64.0,59.0,-100.00,NE,45,0.0,5.0,85,0.00,,,0.00,0.000000,,2013-09-26 01:42:00,
2013-09-25 21:52:00,64.0,59.0,-100.00,NE,45,0.0,5.0,85,0.00,,,0.00,0.000000,,2013-09-26 01:52:00,
2013-09-25 22:02:00,64.0,59.0,-100.00,NE,45,0.0,5.0,85,0.00,,,0.00,0.000000,,2013-09-26 02:02:00,
2013-09-25 22:52:00,64.0,59.0,-100.00,NE,54,0.0,0.0,84,0.00,,,0.00,0.000000,,2013-09-26 02:52:00,
2013-09-25 23:02:00,64.0,59.0,-100.00,NE,54,0.0,0.0,84,0.00,,,0.00,0.000000,,2013-09-26 03:02:00,
2013-09-25 23:45:00,63.0,59.0,-100.00,NE,39,3.0,6.0,88,0.00,,,0.00,0.000000,,2013-09-26 03:45:00,
2013-09-25 23:55:00,63.0,59.0,-100.00,NE,39,3.0,6.0,88,0.00,,,0.00,0.000000,,2013-09-26 03:55:00,